Location: Miss�
(46.9484°N, 0.1922°W)
Time: 00:06:40
(UTC+00:00)

Cosmos 2366 rocket - Pass Details

Date: 02 March 2021
Orbit: 954 x 998 km, 82.9° (Epoch: 20 April)

Event Time Altitude Azimuth Distance (km) Brightness Sun altitude
Rises 19:40:05 0° 175° (S) 3,677 6.9 -19.8°
Reaches altitude 10° 19:42:36 10° 172° (S) 2,739 6.1 -20.3°
Maximum altitude 19:48:47 62° 93° (E) 1,108 4.0 -21.3°
Drops below altitude 10° 19:55:04 10° 15° (NNE) 2,776 6.4 -22.3°
Sets 19:57:38 0° 12° (NNE) 3,731 7.1 -22.8°
